Location: Alincthun
(50.7310°N, 1.8022°E)
Time: 16:48:40
(UTC+00:00)

Cosmos 1484 Rocket - Pass Details

Date: 17 February 2020
Orbit: 507 x 559 km, 97.4° (Epoch: 30 March)

Event Time Altitude Azimuth Distance (km) Brightness Sun altitude
Rises 05:09:00 0° 11° (N) 2,708 6.5 -18.5°
Reaches altitude 10° 05:11:07 10° 10° (N) 1,819 5.6 -18.2°
Maximum altitude 05:15:03 73° 286° (WNW) 579 2.7 -17.6°
Drops below altitude 10° 05:19:00 10° 202° (SSW) 1,830 5.2 -16.9°
Enters shadow 05:20:16 - 201° (SSW) 2,364 5.8 -16.7°
